SCP
0 0 1 1 1 1 0 0 0 0 0 0 0 0 0 0 0 0 0 0 0 0 0 0 0 0 0 0 0 0 0 0 0 0 0 0 0 0 0 0 0 0 0
0 0 1 1 1 1 1 1 0 0 0 0 0 0 0 0 0 0 0 0 0 0 0 0 0 0 0 0 0 0 0 0 0 0 0 0 0 0 0 0 0 0 0
0 0 1 1 1 1 1 1 1 1 0 0 0 0 0 0 0 0 0 0 0 0 0 0 0 0 0 0 0 0 0 0 0 0 0 0 0 0 0 0 0 0 0
1 1 1 1 1 1 1 1 1 1 0 0 0 0 0 0 0 0 0 0 0 0 0 0 0 0 0 0 0 0 0 0 0 0 0 0 0 0 0 0 0 0 0
1 1 1 1 1 1 1 1 1 1 1 0 0 0 0 0 0 0 0 0 0 0 0 0 0 0 0 0 0 0 0 0 0 0 0 0 0 0 0 0 0 0 0
1 1 1 1 1 1 1 1 1 1 1 0 0 0 0 0 0 0 0 0 0 0 0 0 0 0 0 0 0 0 0 0 0 0 0 0 0 0 0 0 0 0 0
1 1 1 1 1 1 1 1 1 1 1 0 0 0 0 0 0 0 0 0 0 0 0 0 0 0 0 0 0 0 0 0 0 0 0 0 0 0 0 0 0 0 0
1 1 0 1 1 1 1 1 1 1 1 1 0 0 0 0 0 0 0 0 0 0 0 0 0 0 0 0 0 0 0 0 0 0 0 0 0 0 0 0 0 0 0
1 1 0 1 1 1 1 1 1 1 1 1 1 1 0 0 0 0 0 0 0 0 0 0 0 0 0 0 0 0 0 0 0 0 0 0 0 0 0 0 0 0 0
1 1 1 1 1 1 1 1 1 1 1 1 1 1 1 0 0 0 0 0 0 0 0 0 0 0 0 0 0 0 0 0 0 0 0 0 0 0 0 0 0 0 0
1 1 1 1 1 1 1 1 1 1 1 1 1 1 1 1 0 0 0 0 0 0 0 0 0 0 0 0 0 0 0 0 0 0 0 0 0 0 0 0 0 0 0
1 1 1 1 1 1 1 1 1 2 1 1 1 1 1 1 1 0 0 0 0 0 0 0 0 0 0 0 0 0 0 0 0 0 0 0 0 0 0 0 0 0 0
1 1 1 1 1 1 1 1 1 1 1 1 1 1 1 1 1 0 0 0 0 0 0 0 0 0 0 0 0 0 0 0 0 0 0 0 0 0 0 0 0 0 0
1 1 1 1 1 1 1 1 1 1 1 2 1 1 1 1 1 1 0 0 0 0 0 0 0 0 0 0 0 0 0 0 0 0 0 0 0 0 0 0 0 0 0
1 1 1 1 1 1 1 1 1 1 2 2 1 1 1 1 1 1 1 0 0 0 0 0 0 0 0 0 0 0 0 0 0 0 0 0 0 0 0 0 0 0 0
1 1 1 1 1 1 1 1 2 2 2 2 2 1 1 1 1 1 1 1 0 0 0 0 0 0 0 0 0 0 0 0 0 0 0 0 0 0 0 0 0 0 0
1 1 1 1 1 1 1 2 2 2 2 2 2 2 2 1 1 1 1 1 1 1 0 0 0 0 0 0 0 0 0 0 0 0 0 0 0 0 0 0 0 0 0
1 1 1 1 1 1 1 2 2 2 2 2 2 2 2 2 1 1 1 1 1 1 0 0 0 0 0 0 0 0 0 0 0 0 0 0 0 0 0 0 0 0 0
1 1 1 1 1 1 2 2 2 2 2 2 2 2 2 2 1 1 1 1 1 1 1 0 0 0 0 0 0 0 0 0 0 0 0 0 0 0 0 0 0 0 0
1 1 1 1 2 2 2 2 2 2 2 2 2 2 2 2 1 1 1 1 1 1 1 1 0 0 0 0 0 0 0 0 0 0 0 0 0 0 0 0 0 0 0
2 2 2 2 2 2 2 2 2 2 2 2 2 2 2 1 1 1 1 1 1 1 1 1 0 0 0 0 0 0 0 0 0 0 0 0 0 0 0 0 0 0 0
2 2 2 2 2 2 2 2 2 2 2 3 2 2 2 1 1 1 1 1 1 1 1 1 0 0 0 0 0 0 0 0 0 0 0 0 0 0 0 0 0 0 0
2 2 2 2 2 2 2 2 2 2 2 3 2 2 2 1 1 1 1 1 1 1 1 1 0 0 0 0 0 0 0 0 0 0 0 0 0 0 0 0 0 0 0
2 2 2 2 2 2 2 2 2 2 2 2 2 2 2 1 1 1 1 1 1 1 1 1 1 0 0 0 0 0 0 0 0 0 0 0 0 0 0 0 0 0 0
2 2 2 2 2 2 2 1 1 2 2 2 2 2 1 1 1 1 1 1 1 1 0 0 0 0 0 0 0 0 0 0 0 0 0 0 0 0 0 0 0 0 0
1 1 1 1 1 1 1 1 1 1 1 2 2 2 1 1 1 1 1 0 0 0 0 0 0 0 0 0 0 0 0 0 0 0 0 0 0 0 0 0 0 0 0
Wind_Speed
9 10 11 11 9 8 7 7 6 5 4 2 2 2 1 1 1 1 2 3 2 2 2 2 1 1 1 1 1 1 1 0 1 2 2 2 2 1 1 1 2 2 2
8 9 9 10 9 9 8 7 7 6 5 3 3 2 2 1 1 1 2 2 2 2 3 2 2 2 1 0 1 1 1 1 1 2 2 1 2 2 1 1 2 1 1
14 12 11 10 10 10 9 8 7 6 6 5 2 2 1 1 1 0 1 1 2 2 2 2 2 2 2 1 1 2 3 2 1 2 3 3 2 0 2 2 1 2 2
12 12 12 11 12 11 9 8 7 6 5 5 4 4 3 2 3 2 2 1 1 2 2 2 2 2 2 2 2 2 2 2 1 1 1 2 4 3 1 1 1 2 2
14 14 14 13 12 11 9 8 7 6 6 5 6 5 3 3 1 1 2 1 1 1 2 2 2 2 2 2 1 1 1 2 2 2 1 1 1 2 3 2 0 1 2
13 13 12 11 10 10 9 8 8 6 6 6 6 6 5 4 3 2 2 1 0 0 1 1 1 1 1 1 2 2 2 1 1 1 2 2 2 2 3 2 2 1 1
13 13 12 12 11 12 11 9 9 7 7 7 6 6 6 5 5 4 4 3 1 1 1 1 1 1 1 2 2 2 1 1 1 1 1 2 2 2 3 3 2 1 1
12 13 13 13 13 13 12 11 10 8 8 7 6 5 5 4 3 4 4 4 3 2 2 2 1 1 2 2 2 1 1 1 0 0 1 1 1 2 3 4 4 2 1
10 11 11 12 12 13 13 12 11 9 9 8 7 5 5 5 5 4 3 3 3 2 3 2 2 2 2 2 2 1 0 1 1 1 1 0 0 1 2 3 5 5 3
8 8 8 9 11 11 11 11 11 10 9 8 7 7 6 5 5 4 4 4 3 3 3 2 2 2 2 2 2 1 0 1 0 0 1 1 0 0 1 2 2 3 4
9 9 8 8 9 9 9 10 10 8 8 8 7 6 5 5 5 5 5 4 3 3 3 3 2 2 2 2 2 1 1 1 1 1 1 1 1 1 1 2 2 2 3
8 7 7 8 8 9 9 10 10 9 9 8 7 6 6 6 5 5 5 4 4 3 3 3 3 2 2 2 1 1 1 1 1 1 2 1 1 2 1 2 2 2 3
6 6 6 7 8 9 8 9 9 9 8 8 7 7 6 7 6 5 5 4 4 4 3 3 3 2 2 2 1 1 1 1 2 2 2 1 2 2 1 2 2 2 3
6 7 6 6 7 7 7 8 8 8 8 8 8 7 7 7 7 6 5 5 5 4 4 3 3 3 2 2 2 2 2 2 2 2 2 2 2 2 2 3 3 4 5
7 8 8 6 6 7 7 7 7 8 8 8 8 8 7 7 6 6 6 5 5 5 4 4 3 3 2 2 2 2 2 2 2 2 1 1 2 3 3 3 4 5 5
7 7 8 8 8 8 8 8 8 7 7 9 8 7 7 7 7 7 6 6 5 4 4 4 4 3 2 3 4 3 2 2 3 2 1 1 2 3 4 6 7 8 8
5 6 7 8 7 7 7 8 8 7 8 8 7 7 8 7 7 7 7 6 6 5 5 4 4 3 3 4 5 4 3 2 2 3 2 2 2 3 4 5 6 5 7
5 5 5 6 6 5 5 6 6 7 8 8 7 7 7 7 7 7 7 6 5 6 5 5 5 4 4 5 6 5 3 2 2 2 3 3 3 3 5 5 4 3 2
5 4 4 5 5 5 6 6 7 7 7 7 8 8 8 8 7 7 7 6 5 5 5 5 5 5 4 5 6 6 2 2 1 1 2 3 3 4 7 5 4 3 1
3 3 3 3 4 4 6 7 7 7 7 8 8 8 8 8 8 8 7 5 5 5 5 5 5 5 4 5 7 6 3 2 1 1 1 3 4 6 7 5 5 4 3
3 4 3 3 3 4 5 5 6 7 8 7 6 7 8 8 8 6 5 5 5 5 5 5 4 4 5 6 8 7 4 4 3 2 2 2 5 6 7 6 5 6 5
3 4 3 2 1 3 5 4 5 6 5 6 7 7 7 6 6 6 5 5 6 6 5 4 3 3 4 5 7 9 8 6 4 4 3 3 6 7 7 5 4 6 5
2 3 3 2 2 2 3 4 3 3 5 6 6 6 6 5 5 6 6 5 5 5 4 4 4 3 3 4 8 9 10 9 5 4 5 6 6 6 5 5 6 5 4
2 2 4 3 2 1 1 2 2 3 5 6 6 5 6 5 4 4 5 5 5 5 5 5 5 4 3 4 4 5 5 7 5 3 4 5 5 4 3 3 3 3 4
2 3 3 2 0 1 1 1 1 2 4 5 4 4 5 5 4 4 4 6 6 7 7 6 5 5 6 7 9 7 6 6 6 4 1 1 1 2 2 2 2 3 3
2 3 2 1 0 0 0 1 0 2 3 4 4 4 4 4 4 4 2 2 3 5 7 7 6 6 8 9 10 11 10 10 10 6 3 4 5 5 6 5 4 4 5
Wind_Direction
176 167 165 163 159 160 160 159 158 166 150 139 142 143 172 188 179 192 188 172 167 159 150 157 155 147 156 189 178 156 138 136 124 96 67 33 42 91 118 153 149 165 172
169 170 168 168 168 169 169 164 165 170 168 168 169 168 166 185 193 196 183 184 172 167 164 157 169 160 159 161 161 144 148 191 157 137 124 78 9 25 45 90 121 130 126
178 177 175 175 171 174 177 174 173 170 173 168 147 120 78 48 51 155 200 203 173 176 171 166 166 170 162 180 196 166 162 183 222 166 151 157 191 238 10 40 72 91 100
182 179 177 178 180 182 178 174 172 171 171 162 157 158 165 183 207 200 198 207 177 171 166 156 155 163 162 174 199 168 170 159 190 242 205 172 158 158 153 17 35 67 82
184 185 184 183 183 179 175 174 170 171 170 168 168 166 177 190 187 164 160 181 195 178 159 152 151 159 159 165 163 144 153 160 175 192 189 143 127 140 151 184 179 52 46
187 188 187 179 177 176 173 171 170 176 175 174 175 177 182 179 168 174 171 172 174 194 158 134 152 163 159 160 167 163 155 164 168 191 183 173 173 173 159 170 170 139 51
185 185 184 181 181 178 177 175 174 180 182 180 184 185 183 178 179 183 178 168 168 193 209 164 164 166 169 161 147 141 148 165 186 208 202 193 200 172 154 146 150 141 139
185 189 189 186 183 180 178 176 179 184 185 184 188 188 182 175 180 182 171 174 181 192 186 159 143 136 136 136 127 126 160 147 158 164 176 197 218 174 160 156 149 141 133
181 189 190 186 183 181 181 179 180 183 185 185 179 181 181 177 177 176 166 167 176 175 158 145 136 130 123 126 122 109 143 126 132 134 112 117 264 171 170 159 159 155 160
173 181 189 187 184 183 180 176 179 184 184 184 182 184 184 181 175 166 167 169 174 158 143 135 126 112 99 103 110 105 44 92 56 118 80 47 356 132 144 155 160 155 149
174 177 184 176 173 170 169 173 177 176 178 183 185 181 179 176 169 165 164 162 161 149 142 134 123 116 104 99 105 129 101 98 63 53 76 53 75 85 125 139 135 128 126
169 169 167 160 160 164 168 173 178 178 182 181 178 176 171 163 161 161 160 154 149 145 140 134 122 119 108 103 111 113 102 102 94 65 65 40 70 68 94 126 125 126 126
150 147 152 161 170 168 167 173 181 183 180 173 170 169 168 167 167 163 158 150 145 141 131 127 128 123 117 111 123 137 135 123 116 106 96 84 89 83 90 114 117 118 114
146 144 152 166 172 167 168 172 182 182 176 171 170 175 177 174 170 163 153 152 151 146 143 142 141 134 124 120 118 116 114 102 100 103 111 112 127 137 131 125 125 120 114
152 156 157 165 174 173 173 177 182 181 175 170 176 183 176 169 165 159 156 156 155 155 153 146 142 145 141 145 139 135 130 124 107 87 78 109 135 145 147 143 143 135 129
157 160 160 167 180 182 181 181 184 181 173 173 176 173 168 167 167 163 159 157 157 155 151 153 154 156 161 154 150 137 129 140 142 140 132 122 110 124 129 134 141 150 151
161 161 169 174 182 184 183 183 182 174 176 178 175 171 168 169 169 167 162 165 166 161 159 159 156 167 178 164 160 153 140 142 157 165 166 161 138 133 130 127 121 132 152
152 160 172 175 181 183 179 175 169 171 176 176 175 172 169 170 169 167 170 171 168 170 171 171 171 175 185 171 165 156 138 134 138 161 170 159 152 153 145 135 118 110 125
155 162 172 172 169 165 168 162 166 171 174 179 179 177 172 170 173 177 180 178 172 173 172 176 178 181 193 181 171 155 138 142 141 168 166 157 155 164 151 137 133 123 108
134 132 131 131 152 170 160 159 167 170 182 187 183 177 173 175 179 183 181 177 172 176 173 180 184 185 192 190 178 165 153 161 177 172 171 166 164 165 162 152 152 157 178
119 118 112 128 165 163 151 160 172 187 192 182 175 175 177 180 181 178 175 172 173 172 175 182 194 196 196 195 188 181 175 183 184 187 207 210 182 173 176 170 171 186 177
100 107 105 94 105 140 148 161 190 198 178 168 171 176 177 179 175 173 172 174 175 178 184 188 202 213 206 199 199 193 196 194 192 201 202 203 192 189 191 188 189 178 160
99 100 111 96 68 100 143 168 198 175 163 166 171 173 173 175 171 172 175 177 179 183 190 193 205 216 216 211 205 199 200 199 198 206 200 198 197 194 201 209 190 169 158
92 86 87 77 36 19 73 167 184 169 162 167 172 170 173 175 176 179 179 183 188 191 195 202 210 211 212 213 204 202 203 205 208 213 214 205 200 195 203 201 196 187 181
111 105 114 127 135 10 20 7 148 150 164 167 169 172 177 179 183 186 190 195 200 199 196 203 201 198 214 219 205 195 198 198 197 169 147 160 180 204 214 214 214 204 192
121 112 110 113 14 9 5 342 160 150 161 163 172 174 177 178 178 179 189 215 213 219 219 212 203 214 217 207 202 203 201 193 176 161 186 204 209 211 209 208 211 208 207